Tracking 27423 objects as of 8-Jun-2023
HD Live streaming from Space Station
objects crossing your sky now

COSMOS 1275 DEB

Track COSMOS 1275 DEB now!
10-day predictions


NORAD ID: 13800
Int'l Code: 1981-053GX
Perigee: 908.8 km
Apogee: 1,154.0 km
Inclination: 83.2 °
Period: 105.6 minutes
Semi major axis: 7402 km
RCS: 0.062 m2 (small)
Launch date: June 4, 1981
Source: Commonwealth of Independent States (former USSR) (CIS)
Launch site: PLESETSK MISSILE AND SPACE COMPLEX (PKMTR)

Note: This is SATELLITE DEBRIS
Your satellite tracking list
Your tracking list is empty




NASA's NSSDC Master Catalog

Two Line Element Set (TLE):
1 13800U 81053GU  23158.22160539  .00001416  00000-0  16278-2 0  9994
2 13800  83.2294 218.8656 0165612 179.0090 245.6814 13.63162056  3135
Source of the keplerian elements: AFSPC